カタログに戻る

STARLINK-35077

運用中通信SSO
NORAD 65529·PAYLOAD·🇺🇸 United States

打ち上げ Sep 6, 2025 から Cape Canaveral Space Force Station

Loading…

次のパス (今後24時間)

TLE

最新Source: CelesTrak SupGP

元期: Sep 14, 2026, 22:48 UTC

1 65529C 25200K   26257.95048611 -.00053618  00000+0 -16647-2 0  2579
2 65529  97.2854 324.3581 0000943  87.7510  32.6349 15.33462269    13

AllMySatでSTARLINK-35077をリアルタイム追跡

Download on the App Store